TimeCST,TemperatureF,Dew PointF,Humidity,Sea Level PressureIn,VisibilityMPH,Wind Direction,Wind SpeedMPH,Gust SpeedMPH,PrecipitationIn,Events,Conditions,WindDirDegrees,DateUTC
12:15 AM,43.0,31.6,64,30.07,10.0,ESE,11.5,-,N/A,,Overcast,120,2013-03-09 06:15:00
12:35 AM,42.6,31.8,66,30.08,10.0,SSE,8.1,-,N/A,Rain,Light Rain,150,2013-03-09 06:35:00
12:55 AM,41.4,32.9,72,30.08,7.0,SE,8.1,-,0.04,Rain,Rain,130,2013-03-09 06:55:00
1:15 AM,40.6,33.3,75,30.06,10.0,ESE,11.5,-,0.01,Rain,Light Rain,120,2013-03-09 07:15:00
1:35 AM,41.4,32.9,72,30.06,10.0,SE,9.2,-,0.01,,Overcast,130,2013-03-09 07:35:00
1:55 AM,41.2,33.1,73,30.08,7.0,South,4.6,-,0.03,Rain,Rain,190,2013-03-09 07:55:00
2:15 AM,40.3,34.3,79,30.08,5.0,SSE,3.5,-,0.02,Rain,Heavy Rain,160,2013-03-09 08:15:00
2:35 AM,39.4,34.9,84,30.07,7.0,ESE,4.6,-,0.04,Rain,Rain,120,2013-03-09 08:35:00
2:55 AM,39.4,35.2,85,30.05,4.0,ESE,3.5,-,0.10,Rain,Rain,120,2013-03-09 08:55:00
3:15 AM,39.2,36.7,91,30.04,5.0,ESE,6.9,-,0.02,Rain,Light Rain,120,2013-03-09 09:15:00
3:35 AM,39.0,37.0,93,30.04,3.0,SE,8.1,-,0.05,Rain,Rain,140,2013-03-09 09:35:00
3:55 AM,38.8,37.6,95,30.03,1.8,ESE,11.5,-,0.20,Rain,Heavy Rain,120,2013-03-09 09:55:00
4:15 AM,39.2,38.3,97,30.01,5.0,SE,16.1,-,0.01,Rain,Light Rain,130,2013-03-09 10:15:00
4:35 AM,39.7,39.0,97,30.00,7.0,SE,16.1,23.0,0.01,Thunderstorm,Overcast,140,2013-03-09 10:35:00
4:55 AM,40.1,39.2,97,29.99,10.0,SE,16.1,-,0.01,,Overcast,140,2013-03-09 10:55:00
5:15 AM,40.5,39.2,95,29.99,10.0,SE,16.1,21.9,N/A,,Overcast,140,2013-03-09 11:15:00
5:35 AM,40.5,39.2,95,29.99,10.0,SE,13.8,21.9,N/A,,Overcast,140,2013-03-09 11:35:00
5:55 AM,40.5,39.0,95,29.98,7.0,SE,13.8,-,N/A,Rain,Rain,140,2013-03-09 11:55:00
6:15 AM,40.3,39.2,96,29.98,10.0,SE,15.0,20.7,N/A,,Overcast,140,2013-03-09 12:15:00
6:35 AM,40.6,39.2,95,29.98,10.0,SE,13.8,-,N/A,,Overcast,140,2013-03-09 12:35:00
6:55 AM,41.0,39.2,93,29.97,10.0,SE,15.0,-,N/A,,Overcast,140,2013-03-09 12:55:00
7:15 AM,41.2,39.2,93,29.97,10.0,SE,13.8,17.3,N/A,,Overcast,140,2013-03-09 13:15:00
7:35 AM,41.5,38.7,89,29.96,10.0,SE,15.0,-,N/A,,Overcast,130,2013-03-09 13:35:00
7:55 AM,41.9,38.5,88,29.96,10.0,SE,13.8,-,N/A,,Overcast,140,2013-03-09 13:55:00
8:15 AM,42.1,38.3,86,29.96,10.0,SSE,11.5,-,N/A,,Overcast,150,2013-03-09 14:15:00
8:35 AM,42.6,38.3,85,29.95,10.0,SSE,15.0,19.6,N/A,,Overcast,150,2013-03-09 14:35:00
8:55 AM,42.6,38.5,85,29.94,10.0,SE,15.0,-,N/A,,Overcast,140,2013-03-09 14:55:00
9:15 AM,43.2,38.5,84,29.93,10.0,SE,13.8,18.4,N/A,,Overcast,140,2013-03-09 15:15:00
9:35 AM,43.5,37.4,79,29.92,10.0,SSE,13.8,23.0,N/A,,Overcast,150,2013-03-09 15:35:00
9:55 AM,43.9,37.4,78,29.91,10.0,SE,12.7,-,N/A,,Overcast,140,2013-03-09 15:55:00
10:15 AM,44.4,37.0,75,29.91,10.0,SE,13.8,-,N/A,,Overcast,140,2013-03-09 16:15:00
10:35 AM,45.1,37.2,74,29.90,10.0,SSE,12.7,-,N/A,,Overcast,150,2013-03-09 16:35:00
10:55 AM,46.4,37.2,70,29.89,10.0,SE,13.8,19.6,N/A,,Overcast,140,2013-03-09 16:55:00
11:15 AM,48.0,37.4,67,29.89,10.0,SSE,11.5,-,N/A,,Mostly Cloudy,150,2013-03-09 17:15:00
11:35 AM,49.6,38.1,65,29.86,10.0,SE,12.7,-,N/A,,Scattered Clouds,140,2013-03-09 17:35:00
11:55 AM,51.8,39.6,63,29.85,10.0,SE,10.4,-,N/A,,Clear,140,2013-03-09 17:55:00
12:15 PM,53.4,40.5,61,29.83,10.0,SE,15.0,-,N/A,,Mostly Cloudy,140,2013-03-09 18:15:00
12:35 PM,54.5,40.5,59,29.81,10.0,SE,12.7,-,N/A,,Overcast,130,2013-03-09 18:35:00
12:55 PM,57.0,41.5,56,29.80,10.0,SE,12.7,-,N/A,,Overcast,140,2013-03-09 18:55:00
1:15 PM,59.4,41.7,52,29.78,10.0,SSE,9.2,-,N/A,,Overcast,150,2013-03-09 19:15:00
1:35 PM,60.4,40.8,48,29.77,10.0,SSE,11.5,-,N/A,,Overcast,150,2013-03-09 19:35:00
1:55 PM,61.3,40.6,47,29.75,10.0,SE,10.4,-,N/A,,Overcast,140,2013-03-09 19:55:00
2:15 PM,61.5,40.1,45,29.74,10.0,SSE,8.1,-,N/A,,Overcast,150,2013-03-09 20:15:00
2:35 PM,61.9,41.0,46,29.74,10.0,SSE,6.9,-,N/A,,Overcast,150,2013-03-09 20:35:00
2:55 PM,63.3,41.0,44,29.73,10.0,SSE,5.8,-,N/A,,Overcast,160,2013-03-09 20:55:00
3:15 PM,65.8,40.6,40,29.72,10.0,SSE,10.4,-,N/A,,Mostly Cloudy,150,2013-03-09 21:15:00
3:35 PM,64.9,40.1,40,29.72,10.0,SSE,15.0,-,N/A,,Overcast,160,2013-03-09 21:35:00
3:55 PM,64.0,40.3,42,29.73,10.0,South,13.8,-,N/A,,Overcast,170,2013-03-09 21:55:00
4:15 PM,63.0,41.4,45,29.73,10.0,SSE,10.4,-,N/A,,Overcast,160,2013-03-09 22:15:00
4:35 PM,62.4,41.7,47,29.72,10.0,SSE,11.5,-,N/A,,Overcast,150,2013-03-09 22:35:00
4:55 PM,62.6,41.4,46,29.71,10.0,SE,9.2,-,N/A,,Overcast,140,2013-03-09 22:55:00
5:15 PM,62.1,42.1,48,29.70,10.0,SSE,9.2,-,N/A,Thunderstorm,Overcast,150,2013-03-09 23:15:00
5:35 PM,61.5,41.7,48,29.69,10.0,SSE,9.2,-,N/A,,Overcast,150,2013-03-09 23:35:00
5:55 PM,61.0,41.2,48,29.69,10.0,SSE,9.2,-,N/A,,Overcast,150,2013-03-09 23:55:00
6:15 PM,61.0,40.5,47,29.69,10.0,SSE,10.4,-,N/A,,Overcast,150,2013-03-10 00:15:00
6:35 PM,61.2,41.9,49,29.69,10.0,South,9.2,-,N/A,Thunderstorm,Overcast,170,2013-03-10 00:35:00
6:55 PM,61.0,43.7,53,29.69,10.0,SSE,8.1,-,N/A,,Overcast,150,2013-03-10 00:55:00
7:15 PM,61.3,44.2,53,29.69,10.0,SSE,10.4,-,N/A,,Overcast,160,2013-03-10 01:15:00
7:35 PM,61.5,45.1,55,29.69,10.0,SSE,6.9,-,N/A,,Overcast,160,2013-03-10 01:35:00
7:55 PM,61.7,46.2,57,29.69,10.0,South,12.7,-,N/A,,Overcast,170,2013-03-10 01:55:00
8:15 PM,61.9,47.5,59,29.70,10.0,South,11.5,-,N/A,Thunderstorm,Overcast,170,2013-03-10 02:15:00
8:35 PM,61.0,48.0,62,29.69,10.0,SSE,13.8,-,N/A,,Overcast,160,2013-03-10 02:35:00
8:55 PM,61.5,48.6,62,29.69,10.0,SSE,13.8,-,N/A,,Overcast,160,2013-03-10 02:55:00
9:15 PM,60.6,49.5,67,29.70,7.0,South,20.7,26.5,0.01,Rain,Light Rain,180,2013-03-10 03:15:00
9:35 PM,59.9,49.6,69,29.72,7.0,South,17.3,25.3,0.02,Rain,Light Rain,180,2013-03-10 03:35:00
9:55 PM,57.6,50.5,77,29.71,7.0,South,15.0,21.9,0.05,Rain,Light Rain,170,2013-03-10 03:55:00
10:15 PM,55.9,50.2,81,29.71,10.0,SSE,16.1,-,N/A,,Light Drizzle,160,2013-03-10 04:15:00
10:35 PM,55.6,49.8,81,29.70,10.0,SSE,16.1,20.7,N/A,,Overcast,150,2013-03-10 04:35:00
10:55 PM,54.9,50.0,84,29.70,10.0,SSE,13.8,19.6,0.01,Rain,Light Rain,150,2013-03-10 04:55:00
11:15 PM,54.0,51.1,90,29.69,10.0,SSE,10.4,16.1,N/A,Rain,Light Rain,150,2013-03-10 05:15:00
11:35 PM,53.8,50.5,89,29.69,10.0,SSE,12.7,16.1,N/A,Rain,Rain,160,2013-03-10 05:35:00
11:55 PM,53.8,49.1,84,29.69,10.0,SSE,11.5,17.3,0.01,Rain,Rain,160,2013-03-10 05:55:00